QPF
0.00 0.00 0.00 0.00 0.00 0.00 0.00 0.00 0.00 0.00 0.00 0.00 0.00 0.00 0.00 0.00 0.00 0.00 0.00 0.00 0.00 0.00 0.00 0.00 0.00 0.00 0.00 0.00 0.00 0.00 0.00 0.00 0.00 0.00 0.00 0.00 0.00 0.00 0.00 0.00 0.00 0.00 0.00 0.00 0.00
0.00 0.00 0.00 0.00 0.00 0.00 0.00 0.00 0.00 0.00 0.00 0.00 0.00 0.00 0.00 0.00 0.00 0.00 0.00 0.00 0.00 0.00 0.00 0.00 0.00 0.00 0.00 0.00 0.00 0.00 0.00 0.00 0.00 0.00 0.00 0.00 0.00 0.00 0.00 0.00 0.00 0.00 0.00 0.00 0.00
0.00 0.00 0.00 0.00 0.00 0.00 0.00 0.00 0.00 0.00 0.00 0.00 0.00 0.00 0.00 0.00 0.00 0.00 0.00 0.00 0.00 0.00 0.00 0.00 0.00 0.00 0.00 0.00 0.00 0.00 0.00 0.00 0.00 0.00 0.00 0.00 0.00 0.00 0.00 0.00 0.00 0.00 0.00 0.00 0.00
0.00 0.00 0.00 0.00 0.00 0.00 0.00 0.00 0.00 0.00 0.00 0.00 0.00 0.00 0.00 0.00 0.00 0.00 0.00 0.00 0.00 0.00 0.00 0.00 0.00 0.00 0.00 0.00 0.00 0.00 0.00 0.00 0.00 0.00 0.00 0.00 0.00 0.00 0.00 0.00 0.00 0.00 0.00 0.00 0.00
0.00 0.00 0.00 0.00 0.00 0.00 0.00 0.00 0.00 0.00 0.00 0.00 0.00 0.00 0.00 0.00 0.00 0.00 0.00 0.00 0.00 0.00 0.00 0.00 0.00 0.00 0.00 0.00 0.00 0.00 0.00 0.00 0.00 0.00 0.00 0.00 0.00 0.00 0.00 0.00 0.00 0.00 0.00 0.00 0.00
0.00 0.00 0.00 0.00 0.00 0.00 0.00 0.00 0.00 0.00 0.00 0.00 0.00 0.00 0.00 0.00 0.00 0.00 0.00 0.00 0.00 0.00 0.00 0.00 0.00 0.00 0.00 0.00 0.00 0.00 0.00 0.00 0.00 0.00 0.00 0.00 0.00 0.00 0.00 0.00 0.00 0.00 0.00 0.00 0.00
0.00 0.00 0.00 0.00 0.00 0.00 0.00 0.00 0.00 0.00 0.00 0.00 0.00 0.00 0.00 0.00 0.00 0.00 0.00 0.00 0.00 0.00 0.00 0.00 0.00 0.00 0.00 0.00 0.00 0.00 0.00 0.00 0.00 0.00 0.00 0.00 0.00 0.00 0.00 0.00 0.00 0.00 0.00 0.00 0.00
0.00 0.00 0.00 0.00 0.00 0.00 0.00 0.00 0.00 0.00 0.00 0.00 0.00 0.00 0.00 0.00 0.00 0.00 0.00 0.00 0.00 0.00 0.00 0.00 0.00 0.00 0.00 0.00 0.00 0.00 0.00 0.00 0.00 0.00 0.00 0.00 0.00 0.00 0.00 0.00 0.00 0.00 0.00 0.00 0.00
0.00 0.00 0.00 0.00 0.00 0.00 0.00 0.00 0.00 0.00 0.00 0.00 0.00 0.00 0.00 0.00 0.00 0.00 0.00 0.00 0.00 0.00 0.00 0.00 0.00 0.00 0.00 0.00 0.00 0.00 0.00 0.00 0.00 0.00 0.00 0.00 0.00 0.00 0.00 0.00 0.00 0.00 0.00 0.00 0.00
0.00 0.00 0.00 0.00 0.00 0.00 0.00 0.00 0.00 0.00 0.00 0.00 0.00 0.00 0.00 0.00 0.00 0.00 0.00 0.00 0.00 0.00 0.00 0.00 0.00 0.00 0.00 0.00 0.00 0.00 0.00 0.00 0.00 0.00 0.00 0.00 0.00 0.00 0.00 0.00 0.00 0.00 0.00 0.00 0.00
0.00 0.00 0.00 0.00 0.00 0.00 0.00 0.00 0.00 0.00 0.00 0.00 0.00 0.00 0.00 0.00 0.00 0.00 0.00 0.00 0.00 0.00 0.00 0.00 0.00 0.00 0.00 0.00 0.00 0.00 0.00 0.00 0.00 0.00 0.00 0.00 0.00 0.00 0.00 0.00 0.00 0.00 0.00 0.00 0.00
0.00 0.00 0.00 0.00 0.00 0.00 0.00 0.00 0.00 0.00 0.00 0.00 0.00 0.00 0.00 0.00 0.00 0.00 0.00 0.00 0.00 0.00 0.00 0.00 0.00 0.00 0.00 0.00 0.00 0.00 0.00 0.00 0.00 0.00 0.00 0.00 0.00 0.00 0.00 0.00 0.00 0.00 0.00 0.00 0.00
0.00 0.00 0.00 0.00 0.00 0.00 0.00 0.00 0.00 0.00 0.00 0.00 0.00 0.00 0.00 0.00 0.00 0.00 0.00 0.00 0.00 0.00 0.00 0.00 0.00 0.00 0.00 0.00 0.00 0.00 0.00 0.00 0.00 0.00 0.00 0.00 0.00 0.00 0.00 0.00 0.00 0.00 0.00 0.00 0.00
0.00 0.00 0.00 0.00 0.00 0.00 0.00 0.00 0.00 0.00 0.00 0.00 0.00 0.00 0.00 0.00 0.00 0.00 0.00 0.00 0.00 0.00 0.00 0.00 0.00 0.00 0.00 0.00 0.00 0.00 0.00 0.00 0.00 0.00 0.00 0.00 0.00 0.00 0.00 0.00 0.00 0.00 0.00 0.00 0.00
0.00 0.00 0.00 0.00 0.00 0.00 0.00 0.00 0.00 0.00 0.00 0.00 0.00 0.00 0.00 0.00 0.00 0.00 0.00 0.00 0.00 0.00 0.00 0.00 0.00 0.00 0.00 0.00 0.00 0.00 0.00 0.00 0.00 0.00 0.00 0.00 0.00 0.00 0.00 0.00 0.00 0.00 0.00 0.00 0.00
0.00 0.00 0.00 0.00 0.00 0.00 0.00 0.00 0.00 0.00 0.00 0.00 0.00 0.00 0.00 0.00 0.00 0.00 0.00 0.00 0.00 0.00 0.00 0.00 0.00 0.00 0.00 0.00 0.00 0.00 0.00 0.00 0.00 0.00 0.00 0.00 0.00 0.00 0.00 0.00 0.00 0.00 0.00 0.00 0.00
0.00 0.00 0.00 0.00 0.00 0.00 0.00 0.00 0.00 0.00 0.00 0.00 0.00 0.00 0.00 0.00 0.00 0.00 0.00 0.00 0.00 0.00 0.00 0.00 0.00 0.00 0.01 0.01 0.00 0.00 0.00 0.00 0.00 0.00 0.00 0.00 0.00 0.00 0.00 0.00 0.00 0.00 0.00 0.00 0.00
0.00 0.00 0.00 0.00 0.00 0.00 0.00 0.00 0.00 0.00 0.00 0.00 0.00 0.00 0.00 0.00 0.00 0.00 0.00 0.00 0.00 0.00 0.00 0.01 0.02 0.01 0.00 0.01 0.00 0.00 0.00 0.00 0.00 0.00 0.00 0.00 0.00 0.00 0.00 0.00 0.00 0.00 0.00 0.00 0.00
0.00 0.00 0.00 0.00 0.00 0.00 0.00 0.00 0.00 0.00 0.00 0.00 0.00 0.00 0.00 0.00 0.00 0.00 0.00 0.00 0.00 0.00 0.00 0.00 0.01 0.01 0.00 0.00 0.01 0.01 0.00 0.00 0.02 0.02 0.01 0.00 0.00 0.00 0.00 0.00 0.00 0.00 0.00 0.00 0.00
0.00 0.00 0.00 0.00 0.00 0.00 0.00 0.00 0.00 0.00 0.00 0.00 0.00 0.00 0.00 0.00 0.00 0.00 0.00 0.00 0.00 0.00 0.00 0.00 0.01 0.00 0.00 0.00 0.00 0.00 0.00 0.02 0.07 0.05 0.01 0.00 0.00 0.00 0.00 0.00 0.00 0.00 0.00 0.00 0.00
0.00 0.00 0.00 0.00 0.00 0.00 0.00 0.00 0.00 0.00 0.00 0.00 0.00 0.00 0.00 0.00 0.00 0.00 0.00 0.00 0.00 0.00 0.00 0.00 0.01 0.00 0.00 0.00 0.00 0.02 0.03 0.02 0.06 0.08 0.06 0.02 0.00 0.00 0.00 0.00 0.00 0.00 0.00 0.00 0.00
0.00 0.00 0.00 0.00 0.00 0.00 0.00 0.00 0.00 0.00 0.00 0.00 0.00 0.00 0.00 0.00 0.00 0.00 0.00 0.00 0.00 0.00 0.00 0.00 0.01 0.01 0.00 0.00 0.00 0.01 0.01 0.01 0.02 0.03 0.02 0.02 0.01 0.00 0.01 0.00 0.00 0.00 0.00 0.01 0.00
0.00 0.00 0.00 0.00 0.00 0.00 0.00 0.00 0.00 0.00 0.00 0.00 0.00 0.00 0.00 0.00 0.00 0.00 0.00 0.00 0.00 0.00 0.01 0.02 0.03 0.03 0.01 0.00 0.02 0.01 0.01 0.03 0.03 0.02 0.03 0.06 0.04 0.02 0.14 0.07 0.02 0.01 0.00 0.07 0.18
0.00 0.00 0.00 0.00 0.00 0.00 0.00 0.00 0.00 0.00 0.00 0.00 0.00 0.00 0.00 0.00 0.00 0.00 0.00 0.00 0.01 0.01 0.01 0.04 0.02 0.02 0.02 0.01 0.10 0.05 0.01 0.00 0.02 0.05 0.01 0.01 0.04 0.23 0.40 0.20 0.09 0.02 0.00 0.01 0.02
0.00 0.00 0.00 0.00 0.00 0.00 0.00 0.00 0.00 0.00 0.00 0.00 0.00 0.00 0.00 0.00 0.00 0.00 0.00 0.00 0.01 0.06 0.05 0.11 0.04 0.00 0.00 0.00 0.00 0.03 0.02 0.00 0.00 0.00 0.00 0.01 0.03 0.15 0.16 0.10 0.03 0.00 0.00 0.00 0.00
0.00 0.00 0.00 0.00 0.00 0.00 0.00 0.00 0.00 0.00 0.00 0.00 0.00 0.00 0.00 0.00 0.00 0.00 0.00 0.00 0.01 0.01 0.01 0.05 0.07 0.03 0.01 0.00 0.00 0.00 0.00 0.00 0.00 0.00 0.00 0.00 0.00 0.00 0.01 0.01 0.00 0.00 0.00 0.00 0.00
0.00 0.00 0.00 0.00 0.00 0.00 0.00 0.00 0.00 0.00 0.00 0.00 0.00 0.00 0.00 0.00 0.00 0.00 0.00 0.00 0.01 0.12 0.17 0.11 0.08 0.09 0.01 0.00 0.02 0.02 0.00 0.00 0.00 0.00 0.00 0.00 0.00 0.00 0.00 0.00 0.00 0.00 0.00 0.00 0.00
MSLP
1020.64 1020.30 1019.92 1019.49 1019.08 1018.75 1018.42 1018.02 1017.55 1017.08 1016.70 1016.39 1015.90 1015.41 1015.11 1014.82 1014.13 1012.40 1011.61 1011.49 1011.20 1010.98 1010.32 1009.34 1008.55 1008.08 1007.77 1007.07 1006.38 1005.66 1004.73 1003.06 1001.84 1000.63 999.39 998.25 997.34 996.44 996.33 996.17 996.05 995.73 996.40 997.81 996.64
1020.74 1020.29 1019.84 1019.44 1019.04 1018.63 1018.24 1017.81 1017.37 1016.94 1016.54 1016.12 1015.66 1015.27 1015.02 1014.61 1013.58 1011.58 1011.27 1011.13 1010.73 1010.64 1010.07 1008.66 1007.48 1006.97 1006.78 1006.18 1006.04 1005.07 1003.56 1001.95 1001.52 1000.58 999.63 998.58 997.89 997.13 996.99 996.62 996.21 996.07 997.29 997.64 997.42
1020.82 1020.37 1019.93 1019.48 1019.03 1018.60 1018.12 1017.65 1017.20 1016.76 1016.35 1015.91 1015.47 1015.06 1014.74 1014.43 1012.02 1010.31 1010.88 1010.66 1010.59 1010.63 1010.01 1009.05 1007.88 1007.11 1005.86 1005.36 1004.93 1004.54 1002.19 1002.18 1000.86 1000.06 999.77 999.18 998.35 997.72 997.34 996.93 996.39 996.14 996.86 997.69 997.79
1020.81 1020.35 1019.86 1019.43 1018.96 1018.46 1017.91 1017.42 1017.00 1016.62 1016.22 1015.78 1015.33 1014.86 1014.37 1013.83 1010.51 1009.89 1010.40 1010.41 1010.25 1010.10 1009.21 1008.08 1007.33 1006.58 1005.80 1004.75 1004.08 1003.55 1002.23 1002.10 1001.10 1000.40 999.91 999.25 998.67 998.08 997.94 997.54 996.79 996.21 996.45 996.98 997.53
1020.72 1020.24 1019.77 1019.29 1018.79 1018.25 1017.73 1017.25 1016.78 1016.31 1015.82 1015.41 1015.14 1014.85 1013.82 1011.42 1009.00 1009.52 1009.75 1009.69 1009.52 1008.46 1008.02 1007.16 1006.58 1005.96 1005.03 1004.43 1004.00 1002.22 1001.71 1001.47 1001.22 1001.07 1000.54 999.82 998.97 998.36 997.72 997.78 997.18 996.52 996.34 996.54 996.95
1020.51 1020.05 1019.57 1019.05 1018.51 1017.96 1017.41 1016.95 1016.50 1016.03 1015.55 1015.11 1014.80 1014.71 1013.35 1010.10 1008.37 1008.39 1008.63 1008.44 1007.90 1007.87 1007.55 1007.05 1006.38 1006.05 1005.29 1004.35 1003.27 1002.70 1001.91 1000.88 1000.38 1000.00 999.97 999.66 998.99 999.03 997.78 997.90 997.62 997.00 996.44 996.81 997.85
1020.42 1019.90 1019.35 1018.77 1018.19 1017.63 1017.01 1016.51 1016.09 1015.68 1015.17 1014.75 1014.52 1014.04 1012.04 1009.18 1008.26 1008.08 1007.89 1007.79 1007.59 1007.45 1007.64 1007.27 1006.91 1006.64 1005.69 1004.66 1003.65 1003.36 1002.13 1000.98 1000.01 999.63 999.33 999.52 998.90 998.17 998.08 998.11 997.80 997.45 996.93 996.62 997.19
1020.31 1019.76 1019.21 1018.61 1017.98 1017.33 1016.71 1016.15 1015.68 1015.16 1014.61 1014.28 1014.19 1013.40 1010.33 1008.15 1008.25 1007.75 1007.82 1007.65 1007.37 1007.36 1007.18 1007.39 1007.52 1007.08 1006.49 1005.77 1004.46 1003.66 1002.17 1000.48 999.10 1000.25 998.97 999.71 997.47 997.68 998.03 997.85 997.85 997.93 997.42 996.84 996.69
1020.05 1019.43 1018.79 1018.13 1017.49 1016.82 1016.17 1015.63 1015.18 1014.59 1014.10 1013.95 1013.54 1012.00 1008.64 1008.11 1007.84 1007.87 1007.94 1007.59 1007.45 1007.03 1006.86 1006.62 1007.02 1006.96 1006.36 1005.43 1004.47 1003.08 1001.55 1000.71 999.57 999.18 999.10 999.26 997.43 997.10 997.32 997.36 997.49 997.82 997.61 997.13 996.58
1019.86 1019.14 1018.46 1017.76 1016.99 1016.31 1015.76 1014.71 1014.13 1014.24 1013.46 1012.69 1011.81 1010.67 1008.19 1007.32 1007.48 1007.92 1007.51 1007.39 1007.21 1006.80 1006.49 1006.15 1006.23 1005.91 1005.26 1004.64 1002.90 1002.22 1001.42 1000.52 999.49 999.03 998.61 997.77 997.45 996.82 996.67 996.70 996.74 997.04 997.37 997.08 996.47
1019.72 1019.02 1018.21 1017.50 1016.73 1016.11 1015.38 1013.18 1013.38 1013.15 1011.97 1010.16 1009.14 1008.22 1007.78 1007.42 1007.72 1007.49 1006.93 1007.30 1006.57 1006.33 1005.75 1005.20 1005.01 1004.42 1003.71 1003.24 1002.71 1002.34 1001.75 1000.68 999.53 999.07 998.67 997.40 996.83 995.44 995.88 996.03 995.85 996.10 996.34 996.52 996.23
1019.50 1018.80 1017.99 1017.16 1016.38 1015.79 1015.70 1012.69 1012.01 1011.75 1010.46 1009.20 1008.30 1008.04 1007.94 1007.84 1007.66 1007.00 1007.12 1007.14 1006.66 1006.27 1005.84 1005.19 1004.20 1003.76 1003.58 1003.26 1002.94 1002.67 1002.08 1001.15 1000.61 1000.19 999.81 998.03 996.84 995.33 994.82 994.54 994.95 995.11 995.36 995.46 995.56
1019.21 1018.33 1017.48 1016.80 1016.03 1015.04 1013.12 1012.10 1011.68 1011.20 1010.46 1007.78 1007.55 1007.42 1007.30 1007.46 1007.08 1006.75 1007.14 1007.07 1006.84 1006.43 1005.87 1005.16 1004.46 1003.88 1003.49 1003.13 1002.69 1002.55 1002.24 1001.74 1001.28 1000.83 1000.30 998.67 997.03 995.88 994.74 994.30 994.23 994.23 994.02 994.26 994.57
1018.99 1018.14 1017.27 1016.53 1016.16 1012.37 1011.52 1011.66 1011.29 1011.52 1009.96 1007.59 1007.31 1006.91 1007.20 1006.93 1006.33 1006.73 1006.78 1007.22 1006.96 1006.54 1006.08 1005.44 1004.91 1004.28 1003.69 1003.25 1003.16 1002.32 1002.39 1001.81 1001.61 1001.32 1000.22 999.84 997.39 996.37 995.19 994.36 994.27 994.07 993.56 993.64 993.73
1018.71 1017.88 1017.08 1016.89 1014.96 1012.13 1011.98 1011.58 1011.62 1011.52 1008.84 1007.13 1006.43 1006.95 1006.89 1006.69 1006.15 1005.60 1006.18 1006.70 1006.51 1006.32 1006.22 1005.33 1004.83 1004.34 1003.78 1003.19 1003.01 1002.35 1002.27 1002.05 1001.83 1001.43 1000.83 999.79 998.82 996.40 995.65 994.16 993.50 993.48 993.28 993.18 993.44
1018.31 1017.65 1017.01 1015.10 1014.65 1012.11 1011.62 1011.70 1011.47 1010.48 1007.65 1006.54 1006.52 1006.26 1006.05 1005.63 1005.31 1005.32 1005.30 1005.52 1005.31 1005.21 1005.27 1004.95 1005.02 1004.43 1004.38 1003.84 1003.63 1003.28 1002.57 1002.34 1002.03 1001.70 1000.44 999.38 998.76 996.43 995.58 994.55 993.30 992.52 992.21 992.18 992.43
1017.77 1017.06 1016.91 1014.77 1012.55 1012.01 1012.01 1011.35 1010.60 1008.38 1007.20 1006.39 1006.28 1006.39 1006.00 1005.44 1005.11 1004.93 1004.94 1004.81 1004.70 1004.70 1004.73 1004.92 1004.58 1005.35 1005.95 1005.55 1004.66 1004.11 1002.91 1002.46 1001.95 1001.11 999.74 999.17 998.17 996.17 995.75 994.58 993.46 992.53 991.88 991.44 991.12
1017.31 1016.09 1014.85 1014.14 1012.80 1012.57 1012.44 1011.55 1009.81 1007.37 1007.09 1007.16 1007.23 1007.03 1006.02 1004.99 1004.94 1005.01 1004.96 1004.63 1004.52 1004.79 1004.99 1005.04 1004.97 1005.57 1006.50 1005.90 1005.49 1004.74 1004.22 1003.56 1002.43 1001.60 1000.16 999.03 997.52 996.18 995.63 994.89 993.72 992.67 991.84 991.44 990.68
1017.03 1014.02 1013.86 1013.20 1012.86 1012.92 1012.46 1010.81 1009.09 1008.08 1008.22 1008.25 1008.01 1006.73 1005.79 1005.48 1006.03 1005.46 1005.21 1004.94 1004.92 1005.37 1005.69 1005.60 1005.42 1006.11 1005.76 1004.88 1005.14 1003.62 1002.71 1002.97 1003.25 1002.88 1001.89 1000.56 998.19 997.18 996.08 995.02 994.06 992.53 991.77 991.14 990.74
1017.15 1014.32 1012.31 1012.53 1012.76 1012.92 1012.26 1010.63 1009.18 1008.42 1008.78 1008.98 1008.65 1007.90 1007.25 1007.07 1006.92 1006.54 1005.94 1005.75 1005.57 1005.95 1006.02 1006.04 1005.31 1005.30 1004.27 1003.58 1003.12 1002.86 1003.04 1003.51 1003.88 1004.09 1002.29 1000.23 998.45 996.73 995.98 995.04 994.10 992.70 991.48 990.84 990.30
1016.13 1012.96 1012.67 1012.57 1012.65 1012.48 1011.65 1010.03 1009.08 1009.30 1009.68 1009.61 1009.23 1008.90 1008.73 1008.61 1008.29 1007.33 1006.91 1006.65 1006.42 1006.58 1006.85 1006.63 1006.33 1005.11 1004.94 1003.49 1002.64 1002.56 1003.90 1004.55 1005.16 1005.06 1003.59 1001.20 998.57 996.79 998.25 997.74 995.81 992.91 991.16 990.47 990.53
1015.35 1012.45 1012.43 1012.54 1012.40 1012.19 1010.93 1009.98 1009.62 1009.13 1009.48 1009.30 1009.37 1009.76 1009.85 1009.58 1008.84 1008.23 1007.66 1007.16 1007.39 1008.15 1008.19 1008.15 1007.81 1006.27 1005.09 1003.67 1002.57 1002.43 1003.06 1004.36 1004.78 1003.57 1002.81 1002.13 998.69 999.09 1000.17 1000.00 998.26 994.27 993.72 991.26 990.34
1015.84 1012.90 1012.37 1012.64 1012.23 1011.56 1011.08 1010.39 1009.68 1009.49 1009.55 1009.54 1009.84 1010.04 1010.20 1009.77 1009.40 1008.40 1007.92 1007.51 1008.17 1009.44 1010.05 1010.55 1009.08 1007.45 1005.43 1003.81 1003.78 1003.62 1004.37 1004.94 1005.14 1003.72 1002.75 1002.06 999.67 1000.22 1001.81 1001.65 999.99 997.25 993.11 992.25 992.07
1016.31 1013.12 1012.23 1012.10 1011.92 1011.94 1011.80 1011.48 1010.37 1009.84 1009.77 1010.25 1010.52 1010.35 1010.07 1009.33 1008.65 1008.18 1007.72 1007.79 1008.91 1010.05 1010.60 1011.11 1010.20 1009.03 1006.86 1005.57 1006.09 1005.82 1004.61 1003.60 1003.18 1002.96 1001.87 1000.60 999.79 1001.36 1002.80 1003.96 1001.49 997.95 994.28 992.07 990.98
1016.45 1014.62 1014.87 1013.38 1013.19 1013.08 1012.61 1012.24 1011.28 1010.86 1010.02 1010.22 1010.27 1009.93 1009.55 1009.35 1008.76 1008.53 1008.01 1007.95 1008.19 1009.34 1010.86 1011.28 1010.05 1008.84 1007.15 1005.98 1005.23 1004.40 1004.38 1003.35 1001.94 1001.13 1000.26 1000.14 999.27 1000.10 1002.18 1003.11 1001.52 998.86 995.29 992.02 992.14
1018.64 1018.35 1017.40 1015.99 1014.61 1013.40 1012.72 1012.34 1012.27 1011.83 1011.97 1011.32 1010.95 1010.54 1010.07 1009.32 1008.62 1007.42 1007.34 1007.29 1007.51 1008.51 1009.99 1010.44 1009.85 1008.97 1006.88 1005.87 1004.38 1003.20 1001.86 1001.23 1000.31 999.92 998.95 998.62 998.13 998.43 999.26 999.62 997.69 995.59 993.53 992.89 992.36
1020.41 1020.38 1019.69 1017.32 1015.03 1013.59 1013.13 1013.05 1012.96 1012.83 1012.33 1011.71 1011.52 1010.96 1009.85 1008.93 1007.93 1007.18 1006.94 1006.58 1006.64 1008.74 1009.55 1010.58 1009.97 1008.90 1006.08 1004.59 1003.08 1001.96 999.94 999.14 997.95 997.66 997.70 997.27 996.99 996.62 997.08 996.34 995.64 994.61 994.02 993.44 992.94
Thickness
5590 5591 5594 5596 5598 5599 5602 5604 5609 5613 5617 5621 5626 5632 5636 5640 5648 5666 5672 5679 5683 5688 5696 5703 5711 5714 5718 5719 5730 5738 5713 5718 5739 5753 5774 5805 5803 5830 5840 5832 5845 5859 5846 5838 5860
5585 5588 5591 5593 5595 5598 5600 5603 5607 5611 5614 5618 5623 5628 5631 5636 5646 5664 5671 5672 5679 5683 5687 5697 5705 5712 5706 5713 5715 5715 5715 5732 5760 5768 5770 5788 5797 5809 5809 5814 5824 5838 5837 5843 5846
5581 5584 5586 5588 5591 5594 5598 5601 5605 5608 5611 5616 5620 5624 5628 5631 5651 5668 5666 5671 5674 5676 5681 5688 5697 5699 5702 5712 5714 5712 5717 5742 5759 5774 5778 5776 5786 5800 5791 5790 5820 5828 5828 5835 5836
5578 5580 5583 5586 5589 5592 5596 5599 5603 5606 5609 5613 5617 5621 5626 5631 5652 5665 5664 5666 5669 5671 5678 5685 5688 5686 5688 5696 5714 5700 5731 5735 5751 5763 5760 5761 5782 5778 5786 5795 5824 5837 5840 5834 5829
5576 5578 5580 5583 5586 5589 5593 5596 5599 5603 5607 5611 5614 5616 5627 5643 5657 5662 5663 5664 5667 5677 5677 5680 5680 5684 5684 5695 5698 5712 5728 5734 5741 5739 5742 5757 5759 5769 5776 5798 5815 5824 5831 5831 5829
5574 5576 5578 5580 5583 5587 5591 5594 5597 5601 5604 5608 5610 5612 5622 5634 5664 5664 5663 5666 5671 5670 5670 5675 5676 5682 5681 5687 5695 5710 5714 5724 5736 5739 5739 5739 5749 5757 5776 5796 5797 5805 5815 5817 5803
5573 5575 5576 5578 5581 5584 5588 5591 5594 5597 5601 5604 5605 5609 5619 5636 5657 5659 5662 5661 5665 5664 5656 5666 5670 5666 5673 5675 5696 5693 5689 5709 5723 5733 5733 5740 5724 5737 5772 5782 5780 5787 5800 5809 5807
5573 5574 5576 5578 5580 5584 5587 5590 5592 5595 5598 5600 5600 5606 5619 5651 5649 5653 5654 5653 5659 5660 5659 5658 5657 5655 5655 5665 5671 5670 5683 5685 5729 5715 5735 5719 5708 5748 5766 5766 5765 5771 5782 5797 5802
5574 5575 5577 5579 5582 5585 5588 5590 5592 5595 5597 5597 5600 5608 5623 5646 5639 5644 5644 5640 5644 5651 5654 5656 5649 5640 5646 5644 5646 5665 5660 5673 5697 5720 5715 5704 5707 5744 5760 5755 5751 5758 5767 5778 5792
5573 5575 5578 5580 5583 5586 5588 5594 5596 5594 5598 5602 5608 5606 5627 5628 5635 5633 5640 5638 5632 5636 5636 5638 5635 5631 5637 5635 5637 5651 5657 5671 5677 5707 5706 5704 5702 5733 5748 5747 5746 5750 5753 5764 5777
5573 5575 5578 5580 5583 5585 5588 5603 5602 5598 5601 5612 5618 5621 5621 5630 5630 5624 5634 5624 5629 5626 5618 5631 5622 5621 5635 5645 5652 5648 5647 5655 5681 5696 5687 5698 5703 5729 5736 5737 5740 5745 5749 5751 5763
5572 5574 5577 5580 5583 5585 5583 5603 5601 5600 5597 5617 5621 5618 5619 5619 5605 5615 5621 5607 5608 5601 5612 5614 5611 5628 5632 5634 5632 5629 5627 5639 5654 5667 5660 5675 5679 5715 5732 5736 5738 5740 5743 5752 5762
5570 5573 5577 5580 5583 5588 5600 5601 5603 5603 5592 5616 5619 5614 5614 5613 5603 5607 5607 5599 5592 5590 5595 5594 5606 5618 5614 5615 5615 5615 5614 5621 5622 5637 5642 5661 5662 5687 5720 5730 5733 5737 5749 5755 5757
5567 5571 5574 5577 5579 5606 5603 5602 5601 5596 5583 5605 5605 5611 5608 5608 5596 5604 5602 5590 5583 5576 5582 5584 5596 5595 5598 5599 5602 5593 5614 5614 5610 5608 5606 5642 5626 5664 5697 5708 5716 5725 5738 5745 5754
5563 5566 5570 5568 5582 5597 5594 5596 5594 5587 5582 5605 5605 5611 5604 5594 5596 5596 5598 5580 5565 5567 5568 5569 5575 5578 5579 5590 5599 5593 5607 5601 5601 5597 5600 5615 5608 5650 5684 5690 5707 5715 5727 5736 5744
5559 5561 5563 5575 5576 5591 5593 5590 5587 5574 5577 5598 5603 5595 5592 5596 5594 5593 5586 5585 5581 5570 5571 5570 5579 5579 5572 5580 5582 5588 5588 5590 5593 5589 5580 5610 5606 5630 5657 5674 5697 5714 5723 5732 5739
5556 5559 5557 5568 5581 5586 5584 5583 5570 5580 5603 5595 5590 5589 5587 5584 5585 5584 5576 5574 5568 5558 5558 5563 5567 5560 5550 5546 5560 5563 5577 5565 5567 5578 5579 5609 5605 5623 5650 5669 5684 5700 5715 5727 5742
5557 5562 5565 5566 5575 5575 5570 5565 5561 5597 5592 5593 5582 5578 5577 5592 5586 5580 5574 5571 5582 5570 5556 5545 5538 5548 5541 5543 5541 5546 5551 5548 5546 5562 5580 5605 5590 5611 5642 5655 5673 5692 5708 5718 5731
5554 5574 5567 5569 5568 5566 5559 5557 5566 5580 5578 5568 5568 5572 5579 5586 5571 5573 5572 5570 5572 5565 5544 5539 5538 5539 5541 5556 5541 5555 5565 5576 5554 5561 5553 5570 5595 5612 5630 5639 5655 5683 5698 5706 5719
5550 5565 5576 5571 5565 5558 5552 5553 5569 5579 5570 5561 5547 5559 5553 5554 5552 5555 5560 5566 5562 5560 5559 5546 5532 5547 5559 5567 5570 5568 5575 5550 5551 5533 5543 5569 5581 5598 5625 5637 5652 5674 5692 5703 5715
5559 5576 5570 5567 5563 5553 5544 5561 5570 5566 5558 5547 5543 5541 5539 5534 5539 5547 5548 5554 5555 5549 5547 5544 5537 5543 5543 5552 5558 5567 5543 5539 5536 5523 5522 5540 5575 5619 5594 5606 5635 5677 5700 5699 5707
5565 5572 5573 5567 5553 5549 5555 5565 5562 5562 5557 5551 5546 5533 5525 5530 5535 5537 5537 5544 5547 5533 5525 5529 5522 5524 5535 5555 5570 5567 5556 5540 5531 5542 5550 5548 5573 5592 5570 5575 5593 5659 5665 5690 5709
5563 5576 5575 5564 5545 5552 5556 5556 5560 5553 5548 5544 5534 5533 5531 5530 5524 5536 5539 5548 5534 5515 5506 5500 5514 5510 5528 5551 5548 5541 5532 5521 5520 5542 5542 5537 5556 5580 5545 5555 5569 5591 5658 5680 5663
5561 5569 5572 5567 5564 5551 5542 5536 5543 5550 5544 5537 5529 5531 5530 5534 5541 5534 5537 5539 5523 5509 5503 5492 5498 5501 5510 5522 5504 5500 5524 5541 5545 5523 5539 5557 5557 5546 5524 5534 5558 5594 5646 5671 5681
5561 5563 5549 5551 5544 5538 5536 5530 5531 5527 5543 5537 5530 5533 5534 5525 5530 5524 5531 5529 5530 5515 5491 5482 5497 5506 5515 5518 5520 5522 5515 5531 5538 5550 5554 5554 5559 5546 5533 5537 5559 5579 5612 5665 5676
5538 5529 5527 5531 5537 5538 5534 5528 5518 5521 5517 5517 5519 5523 5527 5526 5529 5533 5534 5532 5528 5525 5505 5497 5492 5499 5509 5514 5524 5526 5541 5538 5543 5550 5569 5571 5568 5573 5557 5559 5576 5604 5637 5651 5670
5520 5512 5505 5521 5536 5539 5531 5522 5514 5514 5512 5518 5514 5515 5523 5529 5539 5542 5539 5542 5538 5508 5492 5480 5487 5495 5519 5530 5535 5526 5550 5559 5576 5577 5576 5570 5580 5589 5577 5585 5596 5619 5629 5643 5664